DW6352 Weather Reports


time (UTC)temp
F
wind
direction
speed
knots
gust
knots
rain 1hr
in
rain 24hr
in
rain mn
in
humidity
%
barometer
mb
20260505034555 44 234 3.5 9.6 0.00 0.00 0.00 51 1004.6
20260505033053 44 268 3.5 10.4 0.00 0.00 0.00 51 1004.4
20260505031606 44 261 2.6 8.7 0.00 0.00 0.00 50 1004.5
20260505030050 44 298 4.3 9.6 0.00 0.00 0.00 50 1004.4
20260505024547 44 290 1.7 6.1 0.00 0.00 0.00 49 1004.3
20260505023051 44 225 3.5 9.6 0.00 0.00 0.00 48 1004.1
20260505021542 45 279 2.6 8.7 0.00 0.00 0.00 48 1003.9
20260505020040 45 298 1.7 6.1 0.00 0.00 0.00 47 1003.7
20260505014539 45 275 3.5 7.8 0.00 0.00 0.00 46 1003.4
20260505013036 46 309 4.3 9.6 0.00 0.00 0.00 45 1003.4
20260505011535 46 277 5.2 13.9 0.00 0.00 0.00 44 1003.2
20260505010032 47 300 6.1 13.0 0.00 0.00 0.00 44 1002.9
20260505004630 47 303 7.8 20.9 0.00 0.00 0.00 42 1002.8
20260505003027 48 301 10.4 20.9 0.00 0.00 0.00 44 1002.8
20260505001525 48 238 12.2 20.9 0.00 0.00 0.00 44 1002.6
20260505000035 48 297 11.3 20.9 0.00 0.00 0.00 44 1002.4
20260504234519 49 310 10.4 18.2 0.00 0.00 0.00 42 1002.1
20260504233016 50 294 12.2 24.3 0.00 0.00 0.00 40 1002.0
20260504231513 50 313 12.2 24.3 0.00 0.00 0.00 38 1001.7
20260504230012 50 306 10.4 20.9 0.00 0.00 0.00 39 1001.6
20260504224510 51 297 12.2 23.5 0.00 0.00 0.00 37 1001.4
20260504223007 52 300 15.6 24.3 0.00 0.00 0.00 37 1001.2
20260504221508 52 308 13.0 24.3 0.00 0.00 0.00 37 1000.9
20260504220001 52 302 9.6 25.2 0.00 0.00 0.00 41 1000.6
20260504214600 53 293 13.9 25.2 0.00 0.00 0.00 37 1000.4
20260504213102 54 306 8.7 23.5 0.00 0.00 0.00 39 1000.2
20260504211553 53 286 13.9 22.6 0.00 0.00 0.00 38 1000.0
20260504210055 54 259 7.8 21.7 0.00 0.00 0.00 41 1000.0
20260504204555 53 315 9.6 24.3 0.00 0.00 0.00 40 999.9
20260504203101 55 311 15.6 25.2 0.00 0.00 0.00 39 999.9
20260504201550 55 279 9.6 19.1 0.00 0.00 0.00 42 999.8
20260504200048 54 308 10.4 27.8 0.00 0.00 0.00 40 999.6
20260504194548 55 293 12.2 29.5 0.00 0.00 0.00 41 999.2
20260504193045 55 284 13.0 21.7 0.00 0.00 0.00 44 999.0
20260504191543 57 299 11.3 22.6 0.00 0.00 0.00 41 998.7
20260504190042 56 259 11.3 22.6 0.00 0.00 0.00 42 998.5
20260504184541 55 275 9.6 23.5 0.00 0.00 0.00 42 998.5
20260504183039 55 334 10.4 21.7 0.00 0.00 0.00 43 998.2
20260504181538 55 306 11.3 20.9 0.00 0.00 0.00 44 997.9
20260504180037 55 292 12.2 24.3 0.00 0.00 0.00 45 997.9
20260504174536 56 286 12.2 21.7 0.00 0.00 0.00 46 997.4
20260504173037 57 310 6.1 19.1 0.00 0.00 0.00 48 997.2
20260504171534 57 307 11.3 22.6 0.00 0.00 0.00 46 997.0
20260504081524 57 194 9.6 15.6 0.00 0.00 0.00 40 994.4
20260504044542 55 167 5.2 10.4 0.00 0.00 0.00 44 999.0
20260504043044 55 189 4.3 10.4 0.00 0.00 0.00 44 999.4
20260504041537 53 169 4.3 7.8 0.00 0.00 0.00 46 999.7
20260504040039 52 175 4.3 8.7 0.00 0.00 0.00 47 1000.1